ISLIP/MACARTHUR, NY current weather conditions

sailwx.info

Wind from 350 at 7 knots

Air temperature -0.0° C
Visibility: greater than 8.7 NM
Dewpoint -9.0° C

Last reported at 2019-Dec-12 17:10 UTC.
Time now 2019-Dec-12 18:20 UTC

Location: N 40°47' W 073°05'.
View on Google Maps.

See reports from other nearby stations

  
Tides and Currents Weather Stations Pressure Air Temp Water Temp Dewpoint Dewpoint Depression Visibility Wind Speed Wind Dir Waves Ship Positions
date/time (UTC)wind fromknots sea level pressurealtimeterstation pressurevisibilityair tempwater tempwave heightnotes
2019-Dec-12 17:10 350 7 8.7-0.0
2019-Dec-12 17:05 340 8 8.7-0.0
2019-Dec-12 17:00 020 7 8.7-1.0
2019-Dec-12 16:56 020 11 8.7-0.6
2019-Dec-12 16:55 020 10 8.7-1.0
2019-Dec-12 16:50 350 8 8.7-1.0
2019-Dec-12 16:45 350 10 8.7-1.0
2019-Dec-12 16:40 360 8 8.7-1.0
2019-Dec-12 16:35 360 10 8.7-1.0
2019-Dec-12 16:30 350 12 8.7-1.0
2019-Dec-12 16:25 340 10 8.7-1.0
2019-Dec-12 16:20 350 11 8.7-1.0
2019-Dec-12 16:15 340 11 8.7-1.0
2019-Dec-12 16:10 360 9 8.7-1.0
2019-Dec-12 16:05 350 11 8.7-1.0
2019-Dec-12 16:00 360 11 8.7-1.0
2019-Dec-12 15:56 360 11 8.7-0.6
2019-Dec-12 15:55 360 11 8.7-1.0
2019-Dec-12 15:50 360 12 8.7-1.0
2019-Dec-12 15:45 360 10 8.7-1.0
2019-Dec-12 15:40 360 11 8.7-1.0
2019-Dec-12 15:35 360 11 8.7-1.0
2019-Dec-12 15:30 360 10 8.7-1.0
2019-Dec-12 15:25 360 12 8.7-1.0
2019-Dec-12 15:20 350 14 8.7-1.0
2019-Dec-12 15:15 360 12 8.7-1.0
2019-Dec-12 15:10 360 12 8.7-1.0
2019-Dec-12 15:05 360 12 8.7-1.0
2019-Dec-12 15:00 350 10 8.7-1.0
2019-Dec-12 14:56 340 11 8.7-1.1
2019-Dec-12 14:55 350 11 8.7-1.0
2019-Dec-12 14:50 350 11 8.7-1.0
2019-Dec-12 14:45 360 11 8.7-1.0
2019-Dec-12 14:40 360 11 8.7-1.0
2019-Dec-12 14:35 010 9 8.7-1.0
2019-Dec-12 14:30 350 7 8.7-2.0
2019-Dec-12 14:25 330 9 8.7-2.0
2019-Dec-12 14:20 350 7 8.7-2.0
2019-Dec-12 14:15 340 9 8.7-2.0
2019-Dec-12 14:10 340 10 8.7-2.0
2019-Dec-12 14:05 340 9 8.7-2.0
2019-Dec-12 14:00 340 10 8.7-2.0
2019-Dec-12 13:56 350 8 8.7-2.2
2019-Dec-12 13:55 350 9 8.7-2.0
2019-Dec-12 13:50 350 8 8.7-2.0
2019-Dec-12 13:45 360 8 8.7-2.0
2019-Dec-12 13:40 350 9 8.7-2.0
2019-Dec-12 13:35 350 9 8.7-2.0
2019-Dec-12 13:30 350 6 8.7-2.0
2019-Dec-12 13:25 330 8 8.7-3.0
2019-Dec-12 13:20 330 9 8.7-3.0
2019-Dec-12 13:15 320 9 8.7-3.0
2019-Dec-12 13:10 320 8 8.7-3.0
2019-Dec-12 13:05 330 5 8.7-3.0
2019-Dec-12 13:00 320 6 8.7-3.0
2019-Dec-12 12:56 310 6 8.7-3.3
2019-Dec-12 12:55 310 6 8.7-3.0
2019-Dec-12 12:50 310 5 8.7-3.0
2019-Dec-12 12:45 320 6 8.7-3.0
2019-Dec-12 12:40 310 6 8.7-4.0
2019-Dec-12 12:35 310 4 8.7-4.0
2019-Dec-12 12:30 8.7-3.0
2019-Dec-12 12:25 8.7-4.0
2019-Dec-12 12:20 8.7-4.0
2019-Dec-12 12:15 330 4 8.7-4.0
2019-Dec-12 12:10 320 6 8.7-4.0
2019-Dec-12 12:05 320 6 8.7-4.0
2019-Dec-12 12:00 320 6 8.7-4.0
2019-Dec-12 11:56 310 6 8.7-3.9
2019-Dec-12 11:55 310 7 8.7-4.0
2019-Dec-12 11:50 310 10 8.7-4.0
2019-Dec-12 11:45 320 9 8.7-4.0
2019-Dec-12 11:40 320 9 8.7-4.0
2019-Dec-12 11:35 320 9 8.7-4.0
2019-Dec-12 11:30 320 9 8.7-4.0
2019-Dec-12 11:25 320 10 8.7-3.0
2019-Dec-12 11:20 320 11 8.7-3.0
2019-Dec-12 11:15 320 13 8.7-3.0
2019-Dec-12 11:10 320 13 8.7-3.0
2019-Dec-12 11:05 320 14 8.7-3.0
2019-Dec-12 11:00 320 12 8.7-3.0
2019-Dec-12 10:56 320 12 8.7-3.9
2019-Dec-12 10:55 320 11 8.7-4.0
2019-Dec-12 10:50 320 9 8.7-4.0
2019-Dec-12 10:45 330 7 8.7-3.0
2019-Dec-12 10:40 320 9 8.7-3.0
2019-Dec-12 10:35 320 9 8.7-3.0
2019-Dec-12 10:30 320 11 8.7-3.0
2019-Dec-12 10:25 310 10 8.7-3.0
2019-Dec-12 10:20 310 12 8.7-3.0
2019-Dec-12 10:15 310 12 8.7-3.0
2019-Dec-12 10:10 310 11 8.7-3.0
2019-Dec-12 10:05 310 11 8.7-3.0
2019-Dec-12 10:00 310 12 8.7-3.0
2019-Dec-12 09:56 310 8 8.7-3.3
2019-Dec-12 09:55 310 10 8.7-3.0
2019-Dec-12 09:50 310 11 8.7-3.0
2019-Dec-12 09:45 320 12 8.7-3.0
2019-Dec-12 09:40 320 13 8.7-3.0
2019-Dec-12 09:35 320 14 8.7-3.0
2019-Dec-12 09:30 320 12 8.7-3.0
2019-Dec-12 09:25 320 12 8.7-3.0
2019-Dec-12 09:20 320 16 8.7-3.0
2019-Dec-12 09:15 320 16 8.7-3.0
2019-Dec-12 09:10 320 17 8.7-3.0
2019-Dec-12 09:05 330 19 8.7-3.0
2019-Dec-12 09:00 330 15 8.7-3.0
2019-Dec-12 08:56 330 13 8.7-2.8
2019-Dec-12 08:55 330 13 8.7-3.0
2019-Dec-12 08:50 320 13 8.7-2.0
2019-Dec-12 08:45 320 14 8.7-2.0
2019-Dec-12 08:40 310 12 8.7-2.0
2019-Dec-12 08:35 310 16 gusting 22 8.7-2.0
2019-Dec-12 08:30 310 19 gusting 25 8.7-2.0
2019-Dec-12 08:25 310 18 8.7-2.0
2019-Dec-12 08:20 320 16 gusting 23 8.7-2.0
2019-Dec-12 08:15 320 14 8.7-2.0
2019-Dec-12 08:10 320 16 gusting 22 8.7-2.0
2019-Dec-12 08:05 320 12 8.7-2.0
2019-Dec-12 08:00 310 12 8.7-2.0
2019-Dec-12 07:56 320 17 gusting 22 8.7-1.7
2019-Dec-12 07:55 320 16 gusting 20 8.7-2.0
2019-Dec-12 07:50 320 15 8.7-2.0
2019-Dec-12 07:45 330 16 8.7-2.0
2019-Dec-12 07:40 330 16 gusting 22 8.7-2.0
2019-Dec-12 07:35 330 14 gusting 20 8.7-2.0
2019-Dec-12 07:30 340 17 gusting 22 8.7-2.0
2019-Dec-12 07:25 330 12 8.7-2.0
2019-Dec-12 07:20 330 15 gusting 20 8.7-1.0
2019-Dec-12 07:15 320 16 8.7-1.0
2019-Dec-12 07:10 310 12 8.7-1.0
2019-Dec-12 07:05 310 12 8.7-1.0
2019-Dec-12 07:00 320 12 8.7-1.0
2019-Dec-12 06:56 320 15 gusting 22 8.7-1.1
2019-Dec-12 06:55 320 13 8.7-1.0
2019-Dec-12 06:50 330 17 8.7-1.0
2019-Dec-12 06:45 320 20 8.7-1.0
2019-Dec-12 06:40 320 17 8.7-1.0
2019-Dec-12 06:35 320 16 gusting 20 8.7-1.0
2019-Dec-12 06:30 320 12 8.7-1.0
2019-Dec-12 06:25 310 11 8.7-1.0
2019-Dec-12 06:20 310 14 8.7-1.0
2019-Dec-12 06:15 310 13 gusting 18 8.7-1.0
2019-Dec-12 06:10 310 12 8.7-1.0
2019-Dec-12 06:05 310 13 8.7-1.0
2019-Dec-12 06:00 310 17 8.7-1.0
2019-Dec-12 05:56 300 11 8.7-1.1
2019-Dec-12 05:55 300 10 gusting 16 8.7-1.0
2019-Dec-12 05:50 300 13 8.7-1.0
2019-Dec-12 05:45 300 11 8.7-1.0
2019-Dec-12 05:40 300 10 8.7-1.0
2019-Dec-12 05:35 300 13 8.7-1.0
2019-Dec-12 05:30 310 14 gusting 19 8.7-1.0
2019-Dec-12 05:25 300 16 gusting 22 8.7-1.0
2019-Dec-12 05:20 300 13 gusting 19 8.7-1.0
2019-Dec-12 05:15 300 14 8.7-1.0
2019-Dec-12 05:10 300 14 8.7-1.0
2019-Dec-12 05:05 300 13 8.7-1.0
2019-Dec-12 05:00 310 15 8.7-1.0
2019-Dec-12 04:56 310 14 gusting 22 8.7-0.6
2019-Dec-12 04:55 310 17 8.7-1.0
2019-Dec-12 04:50 300 15 8.7-1.0
2019-Dec-12 04:45 300 15 8.7-1.0
2019-Dec-12 04:40 300 16 8.7-1.0
2019-Dec-12 04:35 310 14 8.7-1.0
2019-Dec-12 04:30 290 11 8.7-1.0
2019-Dec-12 04:25 300 11 8.7-1.0
2019-Dec-12 04:20 290 12 8.7-1.0
2019-Dec-12 04:15 300 13 8.7-1.0
2019-Dec-12 04:10 300 11 8.7-1.0
2019-Dec-12 04:05 290 12 gusting 17 8.7-1.0
2019-Dec-12 04:00 300 12 8.7-1.0
2019-Dec-12 03:56 290 11 8.7-0.6
2019-Dec-12 03:55 290 10 8.7-1.0
2019-Dec-12 03:50 300 11 8.7-1.0
2019-Dec-12 03:45 300 13 8.7-1.0
2019-Dec-12 03:40 290 9 8.7-1.0
2019-Dec-12 03:35 290 9 8.7-1.0
2019-Dec-12 03:30 290 12 8.7-1.0
2019-Dec-12 03:25 290 12 8.7-1.0
2019-Dec-12 03:20 290 11 8.7-1.0
2019-Dec-12 03:15 290 12 8.7-1.0
2019-Dec-12 03:10 290 12 8.7-1.0
2019-Dec-12 03:05 290 11 8.7-1.0
2019-Dec-12 03:00 290 11 8.7-1.0
2019-Dec-12 02:56 290 13 gusting 20 8.7-0.6
2019-Dec-12 02:55 290 14 8.7-1.0
2019-Dec-12 02:50 290 13 8.7-1.0
2019-Dec-12 02:45 290 11 8.7-0.0
2019-Dec-12 02:40 290 12 8.7-0.0
2019-Dec-12 02:35 290 11 8.7-0.0
2019-Dec-12 02:30 290 10 8.7-0.0
2019-Dec-12 02:25 290 13 8.7-0.0
2019-Dec-12 02:20 290 12 8.7-0.0
2019-Dec-12 02:15 280 13 8.7-0.0
2019-Dec-12 02:10 280 11 8.7-0.0
2019-Dec-12 02:05 280 13 8.7 1.0
2019-Dec-12 02:00 280 14 8.7-0.0
2019-Dec-12 01:56 280 11 8.7-0.0
2019-Dec-12 01:55 280 11 8.7-0.0
2019-Dec-12 01:50 280 9 8.7-0.0
2019-Dec-12 01:45 280 8 8.7-0.0
2019-Dec-12 01:40 280 9 8.7-0.0
2019-Dec-12 01:35 280 8 8.7-0.0
2019-Dec-12 01:30 280 9 8.7-0.0
2019-Dec-12 01:25 280 10 8.7-0.0
2019-Dec-12 01:20 270 10 8.7-0.0
2019-Dec-12 01:15 280 9 8.7-0.0
2019-Dec-12 01:10 270 7 8.7-0.0
2019-Dec-12 01:05 260 7 8.7-1.0
2019-Dec-12 01:00 260 6 8.7-1.0
2019-Dec-12 00:56 260 6 8.7-0.0
2019-Dec-12 00:55 260 6 8.7-0.0
2019-Dec-12 00:50 260 9 8.7 1.0
2019-Dec-12 00:45 260 8 8.7 1.0
2019-Dec-12 00:40 260 8 8.7 1.0
2019-Dec-12 00:35 250 8 6.1-0.0
2019-Dec-12 00:30 260 7 8.7-0.0
2019-Dec-12 00:25 260 8 8.7-0.0
2019-Dec-12 00:20 250 8 8.7-0.0
2019-Dec-12 00:15 250 7 8.7-1.0
2019-Dec-12 00:10 250 6 8.7-0.0
2019-Dec-12 00:05 250 7 8.7-1.0
2019-Dec-12 00:00 250 6 8.7-1.0
2019-Dec-11 23:56 230 6 8.7-0.0
2019-Dec-11 23:55 240 7 8.7-0.0
2019-Dec-11 23:50 230 6 8.7-0.0
2019-Dec-11 23:45 230 5 8.7-1.0
2019-Dec-11 23:40 230 4 7.8-0.0
2019-Dec-11 23:35 220 5 7.8-0.0
2019-Dec-11 23:30 220 6 8.7-0.0
2019-Dec-11 23:25 220 5 8.7-1.0
2019-Dec-11 23:20 230 5 8.7-1.0
2019-Dec-11 23:15 230 5 8.7-0.0
2019-Dec-11 23:10 230 6 8.7-1.0
2019-Dec-11 23:05 230 6 8.7-0.0
2019-Dec-11 23:00 230 6 8.7-0.0
2019-Dec-11 22:56 230 6 8.7-0.0
2019-Dec-11 22:55 230 6 8.7-0.0
2019-Dec-11 22:50 230 7 8.7 1.0
2019-Dec-11 22:45 240 9 8.7 1.0
2019-Dec-11 22:40 240 8 8.7 1.0
2019-Dec-11 22:35 240 9 8.7 1.0
2019-Dec-11 22:30 250 9 8.7 1.0
2019-Dec-11 22:25 250 8 8.7-0.0
2019-Dec-11 22:20 240 7 8.7-0.0
2019-Dec-11 22:15 240 6 8.7 1.0
2019-Dec-11 22:10 230 9 8.7 1.0
2019-Dec-11 22:05 220 6 8.7-0.0
2019-Dec-11 22:00 220 5 8.7-0.0
2019-Dec-11 21:56 220 4 8.7-0.0
2019-Dec-11 21:55 220 4 8.7-0.0
2019-Dec-11 21:50 220 4 8.7-1.0
2019-Dec-11 21:45 230 4 8.7-0.0
2019-Dec-11 21:40 240 4 8.7-0.0
2019-Dec-11 21:35 220 4 8.7 1.0
2019-Dec-11 21:30 210 5 8.7 1.0
2019-Dec-11 21:25 210 6 8.7 1.0
2019-Dec-11 21:20 210 5 8.7 1.0
2019-Dec-11 21:15 220 6 8.7 1.0
2019-Dec-11 21:10 220 6 8.7 1.0
2019-Dec-11 21:05 220 6 8.7 1.0
2019-Dec-11 21:00 220 7 8.7 1.0
2019-Dec-11 20:56 220 6 8.7 0.6
2019-Dec-11 20:55 220 6 8.7 1.0
2019-Dec-11 20:50 220 6 8.7 1.0
2019-Dec-11 20:45 220 6 8.7 1.0
2019-Dec-11 20:40 210 5 8.7 1.0
2019-Dec-11 20:35 220 4 8.7 1.0
2019-Dec-11 20:30 240 4 8.7 1.0
2019-Dec-11 20:25 240 6 8.7 1.0
2019-Dec-11 20:20 240 7 8.7 1.0
2019-Dec-11 20:15 240 8 8.7 1.0
2019-Dec-11 20:10 240 5 8.7 1.0
2019-Dec-11 20:05 270 5 8.7 1.0
2019-Dec-11 20:00 260 8 8.7 1.0
2019-Dec-11 19:56 270 6 8.7 1.1
2019-Dec-11 19:55 270 6 8.7 1.0
2019-Dec-11 19:50 280 6 8.7 1.0
2019-Dec-11 19:45 280 6 8.7 1.0
2019-Dec-11 19:40 270 5 8.7 1.0
2019-Dec-11 19:35 270 5 8.7 1.0
2019-Dec-11 19:30 260 5 8.7 1.0
2019-Dec-11 19:25 270 6 8.7 1.0
2019-Dec-11 19:20 270 5 8.7 1.0
2019-Dec-11 19:15 260 5 8.7 1.0
2019-Dec-11 19:10 250 5 8.7 1.0
2019-Dec-11 19:05 260 4 8.7 1.0
2019-Dec-11 19:00 300 6 8.7 1.0
2019-Dec-11 18:56 290 4 8.7 0.6
2019-Dec-11 18:55 290 4 8.7 1.0
2019-Dec-11 18:50 280 4 8.7 1.0
2019-Dec-11 18:45 270 5 8.7 1.0
2019-Dec-11 18:40 290 4 8.7 1.0
2019-Dec-11 18:35 280 4 8.7 1.0
2019-Dec-11 18:30 290 4 8.7 1.0
2019-Dec-11 18:25 270 4 8.7 1.0
2019-Dec-11 18:20 8.7 1.0
2019-Dec-11 18:15 270 4 8.7 1.0
2019-Dec-11 18:10 280 4 8.7 1.0
2019-Dec-11 18:05 280 3 8.7 1.0
2019-Dec-11 18:00 290 4 8.7 1.0
2019-Dec-11 17:56 320 2 8.7 0.6
2019-Dec-11 17:55 320 3 8.7 1.0
2019-Dec-11 17:50 300 4 8.7-0.0
2019-Dec-11 17:45 290 6 8.7-0.0
2019-Dec-11 17:40 310 4 8.7-0.0
2019-Dec-11 17:35 330 3 8.7 1.0
2019-Dec-11 17:30 8.7 1.0
2019-Dec-11 17:25 8.7 1.0
2019-Dec-11 17:20 8.7 1.0
2019-Dec-11 17:15 8.7 1.0
2019-Dec-11 17:10 360 4 8.7-0.0 Light snow.
2019-Dec-11 17:05 360 3 8.7-0.0 Light snow.
2019-Dec-11 17:00 360 3 8.7-0.0 Light snow.
2019-Dec-11 16:56 020 5 8.7-0.0 Light snow.
2019-Dec-11 16:55 010 5 8.7-0.0 Light snow.
2019-Dec-11 16:50 350 4 8.7-0.0
2019-Dec-11 16:45 010 4 8.7-0.0
2019-Dec-11 16:40 010 5 8.7-0.0
2019-Dec-11 16:35 040 5 8.7-1.0
2019-Dec-11 16:30 030 5 8.7-1.0
2019-Dec-11 16:25 040 6 8.7-0.0
2019-Dec-11 16:20 010 4 8.7-0.0
2019-Dec-11 16:15 360 5 8.7-0.0
2019-Dec-11 16:10 020 6 8.7-0.0
2019-Dec-11 16:05 030 7 8.7-0.0
2019-Dec-11 16:00 010 6 8.7-1.0 Light snow.
2019-Dec-11 15:56 010 6 8.7-0.6 Light snow.
2019-Dec-11 15:55 010 7 8.7-1.0 Light snow.
2019-Dec-11 15:50 360 6 6.1-1.0 Light snow.
2019-Dec-11 15:45 360 6 6.1-1.0 Light snow.
2019-Dec-11 15:40 360 6 6.1-1.0 Light snow.
2019-Dec-11 15:35 360 8 6.1-1.0 Light snow.
2019-Dec-11 15:33 360 6 6.1-1.1 Light snow.
2019-Dec-11 15:30 360 7 6.1-1.0 Light snow.
2019-Dec-11 15:25 010 6 3.5-1.0 Light snow. Mist.
2019-Dec-11 15:20 020 5 2.2-1.0 Light snow. Mist.
2019-Dec-11 15:15 010 6 1.5-1.0 Light snow. Mist.
2019-Dec-11 15:10 350 8 0.9-1.0 Light snow. Mist.
2019-Dec-11 15:05 360 9 0.9-1.0 Light snow. Mist.
2019-Dec-11 15:00 350 5 0.9-1.0 Light snow. Mist.
2019-Dec-11 14:56 360 5 0.9-1.1 Light snow. Mist.
2019-Dec-11 14:55 360 6 0.9-1.0 Light snow. Mist.
2019-Dec-11 14:54 360 6 0.9-1.0 Light snow. Mist.
2019-Dec-11 14:50 360 6 1.7-1.0 Light snow. Mist.
2019-Dec-11 14:45 350 6 1.7-1.0 Light snow. Mist.
2019-Dec-11 14:41 360 7 1.7-1.1 Light snow. Mist.
2019-Dec-11 14:40 350 8 1.7-1.0 Light snow. Mist.
2019-Dec-11 14:35 010 6 3.5-1.0 Light snow. Mist.
2019-Dec-11 14:30 010 7 3.5-1.0 Light snow. Mist.
2019-Dec-11 14:25 020 6 3.5-1.0 Light snow. Mist.
2019-Dec-11 14:24 020 6 3.5-1.1 Light snow. Mist.
2019-Dec-11 14:20 020 8 2.6-1.0 Light snow. Mist.
2019-Dec-11 14:15 020 6 2.6-1.0 Light snow. Mist.
2019-Dec-11 14:10 030 7 2.6-1.0 Light snow. Mist.
2019-Dec-11 14:05 030 7 2.6-1.0 Light snow. Mist.
2019-Dec-11 14:00 030 8 2.6-1.0 Light snow. Mist.
2019-Dec-11 13:56 030 6 1.3-0.6 Light snow. Mist.
2019-Dec-11 13:55 030 7 2.6-1.0 Light snow. Mist.
2019-Dec-11 13:50 030 7 2.6-1.0 Light snow. Mist.
2019-Dec-11 13:45 040 8 2.6-1.0 Light snow. Mist.
2019-Dec-11 13:40 030 6 2.6-1.0 Light snow. Mist.
2019-Dec-11 13:35 020 6 2.6-1.0 Light snow. Mist.
2019-Dec-11 13:30 020 10 2.6-1.0 Mist.
2019-Dec-11 13:25 020 9 1.7-1.0 Mist.
2019-Dec-11 13:20 020 9 1.7-1.0 Mist.
2019-Dec-11 13:15 030 8 1.7-1.0 Light snow. Mist.
2019-Dec-11 13:10 020 9 1.7-1.0 Light snow. Mist.
2019-Dec-11 13:05 020 7 2.6-1.0 Light snow. Mist.
2019-Dec-11 13:00 010 8 3.5-1.0 Light snow. Mist.
2019-Dec-11 12:59 010 7 1.3-0.6 Light snow. Mist.
2019-Dec-11 12:56 020 7 2.2-0.6 Light snow. Mist.
2019-Dec-11 12:55 020 9 2.6-1.0 Light snow. Mist.
2019-Dec-11 12:52 010 7 2.2-1.0 Light snow. Mist.
2019-Dec-11 12:50 020 10 1.7-1.0 Light snow. Mist.
2019-Dec-11 12:45 010 8 1.7-1.0 Light snow. Mist.
2019-Dec-11 12:40 010 10 1.7-1.0 Light snow. Mist.
2019-Dec-11 12:37 020 9 0.4-0.6 Light snow. Mist.
2019-Dec-11 12:35 020 9 1.7-1.0 Light snow. Mist.
2019-Dec-11 12:30 020 12 1.7-1.0 Light snow. Mist.
2019-Dec-11 12:25 010 12 1.7-1.0 Light snow. Mist.
2019-Dec-11 12:20 010 13 2.6-1.0 Light snow. Mist.
2019-Dec-11 12:15 360 11 2.6-1.0 Light snow. Mist.
2019-Dec-11 12:10 360 8 1.7-1.0 Light snow. Mist.
2019-Dec-11 12:05 010 12 1.1-1.0 Light snow. Mist.
2019-Dec-11 12:00 010 11 0.7-1.0 Light snow. Mist.
2019-Dec-11 11:56 360 13 0.4-0.6 Light snow. Mist.
2019-Dec-11 11:55 360 13 0.7-1.0 Light snow. Mist.
2019-Dec-11 11:50 360 11 0.7-1.0 Light snow. Mist.
2019-Dec-11 11:45 360 9 0.7-1.0 Light snow. Mist.
2019-Dec-11 11:40 360 11 0.7-0.0 Light snow. Mist.
2019-Dec-11 11:35 360 11 0.7-0.0 Light snow. Mist.
2019-Dec-11 11:30 360 12 0.7-0.0 Light snow. Mist.
2019-Dec-11 11:25 010 10 0.7-0.0 Light snow. Mist.
2019-Dec-11 11:23 360 9 0.4-0.0 Light snow. Mist.
2019-Dec-11 11:20 010 10 0.9-0.0 Light snow. Mist.
2019-Dec-11 11:15 010 10 1.1-0.0 Light snow. Mist.
2019-Dec-11 11:10 360 10 1.1-0.0 Light snow. Mist.
2019-Dec-11 11:05 010 10 1.1-0.0 Light snow. Mist.
2019-Dec-11 11:00 010 12 1.3-0.0 Light snow. Mist.
2019-Dec-11 10:56 010 11 1.5-0.0 Light snow. Mist.
2019-Dec-11 10:55 020 11 1.5-0.0 Light snow. Mist.
2019-Dec-11 10:50 010 12 1.5-0.0 Light snow. Mist.
2019-Dec-11 10:48 010 11 1.3-0.0 Light snow. Mist.
2019-Dec-11 10:45 010 10 1.3-0.0 Light snow. Mist.
2019-Dec-11 10:40 010 11 1.1-0.0 Light snow. Mist.
2019-Dec-11 10:35 010 9 1.1 1.0 Light snow. Mist.
2019-Dec-11 10:30 020 12 1.3 1.0 Light snow. Mist.
2019-Dec-11 10:25 020 10 1.3 1.0 Light snow. Mist.
2019-Dec-11 10:20 010 12 1.3 1.0 Light snow. Mist.
2019-Dec-11 10:18 010 8 1.3 0.6 Light snow. Mist.
2019-Dec-11 10:15 010 8 1.3 1.0 Light snow. Mist.
2019-Dec-11 10:10 010 7 1.1 1.0 Light snow. Mist.
2019-Dec-11 10:05 010 8 1.1 1.0 Light snow. Mist.
2019-Dec-11 10:00 010 11 1.1 1.0 Light snow. Mist.
2019-Dec-11 09:56 360 11 1.3 0.6 Light snow. Mist.
2019-Dec-11 09:55 010 11 1.3 1.0 Light snow. Mist.
2019-Dec-11 09:54 010 8 1.3 1.0 Light snow. Mist.
2019-Dec-11 09:50 010 8 1.5 1.0 Light snow. Mist.
2019-Dec-11 09:47 010 7 1.7 0.6 Light snow. Mist.
2019-Dec-11 09:45 360 9 1.7 1.0 Light snow. Mist.
2019-Dec-11 09:40 360 10 2.2 1.0 Light snow. Mist.
2019-Dec-11 09:38 360 9 2.2 0.6 Light snow. Mist.
2019-Dec-11 09:35 350 10 2.6 1.0 Light snow. Mist.
2019-Dec-11 09:30 350 10 3.0 1.0 Light snow. Mist.
2019-Dec-11 09:25 360 9 2.6 1.0 Light snow. Mist.
2019-Dec-11 09:20 010 9 2.6 1.0 Light snow. Mist.
2019-Dec-11 09:15 010 7 3.5 1.0 Light snow. Mist.
2019-Dec-11 09:10 360 6 3.5 1.0 Light snow. Mist.
2019-Dec-11 09:08 010 6 3.5 1.1 Light snow. Mist.
2019-Dec-11 09:05 360 8 3.5 1.0 Light snow. Mist.
2019-Dec-11 09:00 360 8 3.5 1.0 Light snow. Mist.
2019-Dec-11 08:56 360 7 3.5 1.1 Light snow. Mist.
2019-Dec-11 08:55 360 7 3.5 1.0 Light snow. Mist.
2019-Dec-11 08:50 360 9 3.5 1.0 Light snow. Mist.
2019-Dec-11 08:45 360 8 4.3 2.0 Light rain. Mist.
2019-Dec-11 08:41 360 8 4.3 1.7 Light rain. Mist.
2019-Dec-11 08:40 360 9 4.3 2.0 Light rain. Mist.
2019-Dec-11 08:35 010 9 4.3 2.0 Light rain. Mist.
2019-Dec-11 08:30 360 10 4.3 2.0 Light rain. Mist.
2019-Dec-11 08:25 360 9 5.2 2.0 Light rain. Mist.
2019-Dec-11 08:20 360 11 5.2 3.0 Light rain. Mist.
2019-Dec-11 08:15 350 10 5.2 3.0 Light rain. Mist.
2019-Dec-11 08:10 340 9 6.1 3.0 Light rain.
2019-Dec-11 08:05 340 9 6.1 3.0 Light rain.
2019-Dec-11 08:00 350 10 6.1 3.0 Light rain.
2019-Dec-11 07:56 340 9 6.1 2.8 Light rain.
2019-Dec-11 07:55 330 10 6.1 3.0 Light rain.
2019-Dec-11 07:50 330 10 6.1 3.0 Light rain.
2019-Dec-11 07:46 330 9 6.1 3.3 Light rain.
2019-Dec-11 07:45 340 10 6.1 3.0 Light rain.
2019-Dec-11 07:42 340 9 5.2 3.3 Light rain. Mist.
2019-Dec-11 07:40 340 10 5.2 3.0 Light rain. Mist.
2019-Dec-11 07:35 350 9 6.1 3.0 Light rain.
2019-Dec-11 07:30 340 11 6.1 3.0 Light rain.
2019-Dec-11 07:25 350 10 5.2 4.0 Light rain. Mist.
2019-Dec-11 07:20 350 10 5.2 4.0 Light rain. Mist.
2019-Dec-11 07:15 350 12 6.1 4.0 Light rain.
2019-Dec-11 07:10 340 9 7.0 4.0 Light rain.
2019-Dec-11 07:09 340 9 6.9 4.4 Light rain.
2019-Dec-11 07:05 340 8 7.0 4.0 Light rain.
2019-Dec-11 07:00 350 6 8.7 4.0 Light rain.
2019-Dec-11 06:56 340 6 8.7 4.4 Light rain.
2019-Dec-11 06:55 340 7 8.7 4.0 Light rain.
2019-Dec-11 06:50 320 8 8.7 4.0 Light rain.
2019-Dec-11 06:45 310 8 7.8 4.0 Light rain.
2019-Dec-11 06:43 310 7 6.9 4.4 Light rain.
2019-Dec-11 06:40 310 8 6.1 4.0 Light rain.
2019-Dec-11 06:35 310 8 6.1 4.0 Light rain.
2019-Dec-11 06:30 300 7 7.0 5.0 Light rain.
2019-Dec-11 06:25 300 5 7.8 5.0 Light rain.
2019-Dec-11 06:20 300 8 7.8 5.0 Light rain.
2019-Dec-11 06:15 300 10 8.7 5.0 Light rain.
2019-Dec-11 06:10 300 6 8.7 5.0 Light rain.
2019-Dec-11 06:05 290 7 8.7 5.0
2019-Dec-11 06:00 290 7 8.7 5.0
2019-Dec-11 05:56 290 6 8.7 5.0 Light rain.
2019-Dec-11 05:55 300 7 8.7 5.0 Light rain.
2019-Dec-11 05:50 300 6 8.7 5.0 Light rain.
2019-Dec-11 05:45 300 7 8.7 5.0 Light rain.
2019-Dec-11 05:40 290 6 8.7 5.0
2019-Dec-11 05:36 290 5 8.7 5.0
2019-Dec-11 05:35 290 5 8.7 5.0
2019-Dec-11 05:30 290 5 8.7 5.0
2019-Dec-11 05:25 310 5 8.7 5.0 Light rain.
2019-Dec-11 05:20 300 6 8.7 6.0 Light rain.
2019-Dec-11 05:15 290 8 8.7 6.0 Light rain.
2019-Dec-11 05:10 300 8 8.7 6.0
2019-Dec-11 05:05 290 10 8.7 6.0
2019-Dec-11 05:00 290 8 8.7 6.0
2019-Dec-11 04:56 290 6 8.7 5.6
2019-Dec-11 04:55 290 8 8.7 6.0
2019-Dec-11 04:50 290 11 8.7 6.0
2019-Dec-11 04:45 290 9 8.7 6.0
2019-Dec-11 04:40 280 7 8.7 6.0
2019-Dec-11 04:35 290 9 8.7 6.0
2019-Dec-11 04:30 280 13 8.7 6.0 Light rain.
2019-Dec-11 04:25 280 7 8.7 6.0 Light rain.
2019-Dec-11 04:20 270 9 8.7 6.0
2019-Dec-11 04:15 290 7 8.7 6.0
2019-Dec-11 04:10 270 8 8.7 6.0
2019-Dec-11 04:05 280 8 8.7 7.0 Light rain.
2019-Dec-11 04:00 280 9 8.7 7.0 Light rain.
2019-Dec-11 03:56 290 7 8.7 6.7 Light rain.
2019-Dec-11 03:55 290 7 8.7 7.0 Light rain.
2019-Dec-11 03:50 290 10 8.7 7.0 Light rain.
2019-Dec-11 03:45 290 10 gusting 15 8.7 7.0 Light rain.
2019-Dec-11 03:40 300 10 8.7 7.0 Light rain.
2019-Dec-11 03:35 290 10 8.7 7.0 Light rain.
2019-Dec-11 03:30 300 12 8.7 7.0 Light rain.
2019-Dec-11 03:25 300 11 8.7 7.0 Light rain.
2019-Dec-11 03:20 300 16 8.7 7.0 Light rain.
2019-Dec-11 03:15 290 19 8.7 7.0 Light rain.
2019-Dec-11 03:10 300 12 7.8 7.0 Light rain.
2019-Dec-11 03:05 300 14 7.8 8.0 Light rain.
2019-Dec-11 03:00 300 13 8.7 8.0 Light rain.
2019-Dec-11 02:56 300 12 gusting 21 7.8 8.3 Light rain.
2019-Dec-11 02:55 300 10 gusting 15 7.8 8.0 Light rain.
2019-Dec-11 02:50 310 12 7.8 8.0 Light rain.
2019-Dec-11 02:45 300 13 8.7 9.0 Light rain.
2019-Dec-11 02:40 300 14 8.7 9.0 Light rain.
2019-Dec-11 02:35 300 12 8.7 9.0
2019-Dec-11 02:30 300 15 8.7 9.0
2019-Dec-11 02:25 300 14 8.7 9.0
2019-Dec-11 02:20 310 14 8.7 9.0 Light rain.
2019-Dec-11 02:15 310 12 8.7 9.0 Light rain.
2019-Dec-11 02:10 320 8 8.7 9.0 Light rain.
2019-Dec-11 02:05 330 9 8.7 9.0 Light rain.
2019-Dec-11 02:00 330 8 8.7 9.0 Light rain.
2019-Dec-11 01:56 320 7 8.7 9.4 Light rain.
2019-Dec-11 01:55 320 8 8.7 9.0 Light rain.
2019-Dec-11 01:50 320 8 8.7 9.0 Light rain.
2019-Dec-11 01:45 320 8 8.7 9.0 Light rain.
2019-Dec-11 01:40 320 11 8.7 9.0 Light rain.
2019-Dec-11 01:35 320 12 8.710.0 Light rain.
2019-Dec-11 01:30 320 13 8.710.0 Light rain.
2019-Dec-11 01:25 330 16 8.711.0 Light rain.
2019-Dec-11 01:20 300 14 gusting 25 8.712.0
2019-Dec-11 01:15 290 9 8.712.0
2019-Dec-11 01:10 290 7 8.712.0
2019-Dec-11 01:05 280 9 8.712.0
2019-Dec-11 01:00 280 10 8.712.0
2019-Dec-11 00:56 280 8 8.711.7
2019-Dec-11 00:55 280 10 8.712.0
2019-Dec-11 00:50 270 9 8.712.0
2019-Dec-11 00:45 280 9 8.712.0
2019-Dec-11 00:40 280 9 8.712.0 Light rain.
2019-Dec-11 00:35 280 9 8.712.0 Light rain.
2019-Dec-11 00:30 280 9 8.712.0
2019-Dec-11 00:25 270 12 8.712.0
2019-Dec-11 00:20 270 8 8.712.0
2019-Dec-11 00:15 270 7 8.712.0
2019-Dec-11 00:10 270 8 8.712.0 Light rain.
2019-Dec-11 00:05 280 6 8.712.0 Light rain.
2019-Dec-11 00:00 260 7 8.712.0 Light rain.
2019-Dec-10 23:56 260 6 4.312.2 Light rain. Mist.
2019-Dec-10 23:55 260 7 4.312.0 Light rain. Mist.
2019-Dec-10 23:50 260 7 4.312.0 Light rain. Mist.
2019-Dec-10 23:45 270 6 4.312.0 Mist.
2019-Dec-10 23:40 260 7 4.312.0 Mist.
2019-Dec-10 23:35 260 8 4.312.0 Mist.
2019-Dec-10 23:30 270 7 4.312.0 Mist.
2019-Dec-10 23:25 270 8 4.312.0 Mist.
2019-Dec-10 23:23 260 7 4.312.2 Mist.
2019-Dec-10 23:20 270 7 1.712.0 Mist.
2019-Dec-10 23:15 270 7 1.712.0 Mist.
2019-Dec-10 23:10 260 7 1.712.0 Mist.
2019-Dec-10 23:05 270 8 1.712.0 Mist.
2019-Dec-10 23:00 270 8 1.712.0 Mist.
2019-Dec-10 22:56 260 5 1.711.7 Mist.
2019-Dec-10 22:55 270 5 1.712.0 Mist.
2019-Dec-10 22:50 280 4 1.712.0 Light drizzle. Mist.
2019-Dec-10 22:45 260 5 1.712.0 Light drizzle. Mist.
2019-Dec-10 22:40 260 5 1.712.0 Light drizzle. Mist.
2019-Dec-10 22:35 250 6 1.712.0 Light drizzle. Mist.
2019-Dec-10 22:30 250 5 1.712.0 Light drizzle. Mist.
2019-Dec-10 22:25 250 5 1.712.0 Light drizzle. Mist.
2019-Dec-10 22:20 250 6 1.712.0 Light drizzle. Mist.
2019-Dec-10 22:15 240 5 1.712.0 Light drizzle. Mist.
2019-Dec-10 22:10 240 6 1.712.0 Light drizzle. Mist.
2019-Dec-10 22:05 250 7 1.712.0 Light drizzle. Mist.
2019-Dec-10 22:00 240 8 1.712.0 Light drizzle. Mist.
2019-Dec-10 21:56 240 8 1.711.1 Light drizzle. Mist.
2019-Dec-10 21:55 230 9 1.711.0 Light drizzle. Mist.
2019-Dec-10 21:50 240 8 1.711.0 Mist.
2019-Dec-10 21:45 240 9 1.711.0 Mist.
2019-Dec-10 21:40 230 9 1.711.0 Mist.
2019-Dec-10 21:35 230 8 1.711.0 Mist.
2019-Dec-10 21:30 230 10 1.711.0 Mist.
2019-Dec-10 21:26 230 7 1.711.1 Mist.
2019-Dec-10 21:25 230 7 1.711.0 Mist.
2019-Dec-10 21:20 230 9 1.711.0 Mist.
2019-Dec-10 21:15 220 8 1.711.0 Mist.
2019-Dec-10 21:10 210 8 1.711.0 Mist.
2019-Dec-10 21:05 200 7 1.711.0 Mist.
2019-Dec-10 21:00 210 8 1.712.0 Mist.
2019-Dec-10 20:56 210 7 0.911.7 Mist.
2019-Dec-10 20:55 210 9 1.712.0 Mist.
2019-Dec-10 20:50 210 8 1.712.0 Light rain. Mist.
2019-Dec-10 20:45 210 9 1.712.0 Light rain. Mist.
2019-Dec-10 20:40 210 8 1.712.0 Light rain. Mist.
2019-Dec-10 20:35 210 9 1.712.0 Light rain. Mist.
2019-Dec-10 20:30 210 9 1.712.0 Light rain. Mist.
2019-Dec-10 20:25 210 7 1.712.0 Light rain. Mist.
2019-Dec-10 20:20 210 8 1.712.0 Light rain. Mist.
2019-Dec-10 20:15 210 7 1.712.0 Light rain. Mist.
2019-Dec-10 20:10 220 7 1.712.0 Light rain. Mist.
2019-Dec-10 20:05 220 7 1.712.0 Light rain. Mist.
2019-Dec-10 20:00 210 8 1.712.0 Light rain. Mist.
2019-Dec-10 19:56 210 7 1.711.7 Light rain. Mist.
2019-Dec-10 19:55 220 8 2.612.0 Light rain. Mist.
2019-Dec-10 19:50 220 8 2.612.0 Mist.
2019-Dec-10 19:45 220 7 2.612.0 Mist.
2019-Dec-10 19:40 220 6 2.612.0 Mist.
2019-Dec-10 19:35 220 7 2.612.0 Mist.
2019-Dec-10 19:30 220 9 2.612.0 Mist.
2019-Dec-10 19:29 220 8 2.611.7 Mist.
2019-Dec-10 19:25 210 6 1.712.0 Light rain. Mist.
2019-Dec-10 19:20 210 6 1.712.0 Light rain. Mist.
2019-Dec-10 19:15 210 7 1.712.0 Mist.
2019-Dec-10 19:10 210 6 1.712.0 Light rain. Mist.
2019-Dec-10 19:05 200 7 1.712.0 Light rain. Mist.
2019-Dec-10 19:00 210 8 1.712.0 Light rain. Mist.
2019-Dec-10 18:56 210 8 1.311.7 Light rain. Mist.
2019-Dec-10 18:55 210 9 1.712.0 Light rain. Mist.
2019-Dec-10 18:50 200 10 1.712.0 Light rain. Mist.
2019-Dec-10 18:45 200 9 1.712.0 Mist.
2019-Dec-10 18:40 210 6 1.711.0 Light rain. Mist.
2019-Dec-10 18:35 210 4 1.711.0 Light rain. Mist.
2019-Dec-10 18:30 220 5 1.711.0 Light rain. Mist.
2019-Dec-10 18:25 200 4 1.711.0 Light rain. Mist.
2019-Dec-10 18:20 210 3 1.711.0 Light rain. Mist.
2019-Dec-10 18:15 210 5 3.511.0 Light rain. Mist.
2019-Dec-10 18:10 220 6 3.511.0 Light rain. Mist.
2019-Dec-10 18:05 220 5 3.012.0 Light rain. Mist.
2019-Dec-10 18:00 210 5 3.012.0 Light rain. Mist.